Location: Marion Hill
(40.7303°N, 80.2959°W)
Time: 08:36:41
(UTC+00:00)

Cosmos 2219 - Pass Details

Date: 29 October 2020
Orbit: 832 x 862 km, 71.1° (Epoch: 28 November)

Event Time Altitude Azimuth Distance (km) Brightness Sun altitude
Rises 23:10:21 0° 337° (NNW) 3,445 6.6 -10.0°
Reaches altitude 10° 23:12:50 10° 338° (NNW) 2,506 5.8 -10.5°
Maximum altitude 23:18:37 82° 67° (ENE) 875 3.2 -11.6°
Drops below altitude 10° 23:24:21 10° 155° (SSE) 2,488 5.5 -12.6°
Sets 23:26:48 0° 156° (SSE) 3,418 6.2 -13.1°
